Карточка аэропорта UOOO

Внимание!
Информация на этой странице в стадии наполнения.
Если вы не увидели какой-то информации, или заметили неточность - пожалуйста сообщите нам!
Спасибо!
Команда RU-STAFF
Название аэропортаАлыкель
Название аэропорта (англ.)Alykel
Превышение574 ft. (175 m.)
Координаты69°19.02', 87°19.02'
Высота перехода1200m
Эшелон переходаQFE>744:FL60;744>QFE>717:FL70;717>QFE:FL80
Коды ответчика5401-5427
Зона ОрВДКрасноярск РПИ (UNKL)
Данные METARUOOO 251000Z 03012MPS 9999 SCT013 M02/M05 Q1014 R01/31//60 NOSIG RMK QFE746/0995
Проноз погоды (TAF)UOOO 250752Z 2509/2609 02012G18MPS 9999 DRSN SCT016CB TEMPO 2509/2518 4000 -SHSN BLSN BKN005 BKN011CB FM251800 03006G12MPS 6000 BKN011CB TEMPO 2518/2604 1200 -SHSN BR BKN003 BKN011CB
NOTAMshow/hide NOTAM
AWOS   TABLE

Информация о ВПП

ВПП Длина ВПП (м.) Покрытие Курс ВПП Частота ILS
013430Бетон13109.5
193430Бетон193110.3

Диспетчерские позиции

Позывной Наименование органа УВД Частота
UOOO_TWRНорильск - Старт118.300
UOOO_GNDНорильск - Руление121.700
UOOO_APPНорильск - Круг120.400



Спутниковое изображение